COSMOS 1275 DEB

Satellite information

Favourite Embed

Satellite Type and Status

DEBRISIN ORBIT

Key statistics

Satellite COSMOS 1275 DEB at a glance.

Uptime

16105

Days in orbit

Revolutions

≈ 14.3

Per day

Orbit

LEO

Low Earth Orbit

Inclination

82.7

Latest

Satellite identification and parameters

Extended collection of information and parameters for COSMOS 1275 DEB.

Object identification

Identified? True

Debris? True

Object name: COSMOS 1275 DEB

International designator: 1981-053MC

Object number (NORAD): 19025

Object ID (CCSDS): 19025

Country: COMMONWEALTH OF INDEPENDENT STATES (CIS)

Current information (Y/N): Y

RCS size: SMALL

Orbital parameters

Period: 100.854 minutes

Inclination: 82.7053 deg

SMA: 7177.212 km

Apoapsis: 817.011 km

Periapsis: 781.143 km

RAAN: 46.8909 deg

Eccentricy: 0.0024988

Argument of periapsis: 119.7668 deg

Mean anomaly: 240.6007 deg

Mean motion: 14.2780566 rev/day

Mean motion (dot): 0.0000269 rev/day2

B* drag term: 0.0010787 1/REarth

Two-line elements (TLE)

Creation date: July 7, 2025, 6:34 p.m.

Reference frame: TEME

Reference center: EARTH

Epoch: July 7, 2025, 1:04 a.m. UTC

TLE line 0: 0 COSMOS 1275 DEB

TLE line 1: 1 19025U 81053MC 25188.04507617 .00002690 00000-0 10787-2 0 9990

TLE line 2: 2 19025 82.7053 46.8909 0024988 119.7668 240.6007 14.27805660 53926

Live tracking on map

Real-time ground track for satellite COSMOS 1275 DEB.

In-orbit conjunctions

A list of the most updated potential collisions computed for object COSMOS 1275 DEB.

Target Orbit TCA Probability of collision Miss distance Type
CZ-4 DEB SSO 2024-12-12 18:40:14 0.0001169035 100.0 (m) DEBRIS
NOAA 16 DEB SSO 2024-11-13 22:41:11 0.0001487399 292.0 (m) DEBRIS
SEDSAT 1 LEO 2024-11-04 06:29:35 0.0009568666 137.0 (m) PAYLOAD
SL-3 R/B LEO 2024-07-31 04:01:39 0.0001102973 353.0 (m) ROCKET BODY

Associated space launch

Navigation satellite providing location information for the Tsiklon-B navigation system

COSMOS 1275 DEB was lifted into orbit during the mission ‘Kosmos-3M | Parus 27’, on board a Kosmos-3M space rocket.

The launch took place on June 4, 1981, 3:41 p.m. from 132/2.

For more information about the launch, click the button.

Launch to space Kosmos-3M | Parus 27
Kosmos-3M | Parus 27

Agency: N/A

Status: Launch Successful

Launch date: June 4, 1981, 3:41 p.m. UTC

Rocket: Kosmos-3M

Launch pad: 132/2

Location: Plesetsk Cosmodrome, Russian Federation

...

Latest news about this satellite

There are no fresh news available about this satellite. Check back as we update our databases every day.


Newsletter sign-up

Weekly statistics, charts and insights to help you stay on top of the space industry.